GFSSW_700_spd_000.txt.gz
Wind_Speed
14 14 14 12 12 12 11 11 11 12 12 12 12 12 13 13 12 12 12 13 13 13 12 13 12 12 13 13 14 14 18 20 19 18 17 17 18 18 23 21 21 21 20 19 19
16 16 16 16 15 15 15 15 15 14 14 14 14 15 15 16 15 16 16 16 16 17 17 18 17 17 17 17 18 18 23 22 17 19 23 23 24 22 26 24 18 20 21 24 23
17 18 17 17 17 17 17 17 18 18 18 18 18 18 18 19 17 18 18 16 17 18 19 21 22 22 22 21 21 27 28 22 25 22 25 28 26 26 28 26 15 24 18 18 20
20 20 19 19 19 19 20 19 19 20 20 20 21 21 21 21 13 12 13 12 14 15 16 18 21 23 26 26 26 30 31 28 28 27 28 28 29 30 33 24 19 22 24 24 24
22 22 21 22 22 22 22 22 22 22 22 22 22 23 23 25 18 20 21 20 20 21 22 22 22 22 26 29 29 34 33 33 32 34 34 33 31 34 36 24 25 26 27 28 27
24 23 23 23 23 23 24 24 25 25 25 25 25 26 26 29 21 20 20 20 20 22 23 24 25 25 28 31 32 35 35 36 37 37 37 37 35 39 34 29 29 32 30 29 32
25 25 25 25 24 24 25 26 26 26 27 28 28 29 30 26 27 26 24 25 26 27 29 28 28 28 30 33 36 34 35 37 40 39 42 38 37 44 37 35 32 33 31 33 34
25 25 25 25 25 26 26 27 26 27 27 28 29 32 35 31 30 28 28 28 30 31 31 32 33 32 33 34 40 40 42 45 42 41 43 43 48 39 39 40 39 36 37 36 35
25 24 25 25 25 25 26 26 26 27 28 29 30 31 35 31 26 21 21 23 23 25 26 28 30 29 29 33 39 39 43 46 43 35 42 44 49 44 40 45 45 43 42 41 41
27 26 25 25 26 26 27 27 27 28 27 28 30 29 26 19 16 19 24 28 28 28 28 31 33 32 30 34 35 43 43 41 42 38 46 51 57 51 43 44 49 48 45 44 43
26 25 24 23 23 23 23 24 26 27 27 24 24 27 28 30 28 27 27 30 31 32 35 36 38 38 39 37 38 39 42 47 46 42 48 51 56 53 48 44 44 43 42 38 34
26 24 25 23 22 22 22 24 25 29 33 28 29 30 29 30 32 29 31 34 37 39 36 40 42 39 36 35 34 37 42 47 51 42 45 52 60 51 45 44 37 34 32 31 29
25 26 25 24 24 24 24 25 27 31 39 42 38 38 35 35 36 36 36 38 39 40 38 42 41 39 38 38 40 43 42 49 50 44 42 48 54 31 27 38 34 20 18 12 9
27 28 28 27 28 27 27 26 26 29 36 37 23 19 17 24 27 24 25 29 32 32 32 36 34 30 24 24 22 36 28 35 39 38 26 25 25 32 31 21 26 8 7 6 22
33 32 33 34 31 30 31 30 27 24 8 11 8 9 10 9 8 8 7 12 16 23 29 31 29 29 31 31 24 32 24 27 30 32 36 17 13 30 28 25 5 5 5 16 33
31 34 32 31 27 26 28 25 28 16 11 6 7 8 12 15 18 20 19 22 23 25 29 32 28 27 29 33 35 33 30 26 27 27 12 21 18 60 11 5 9 5 30 21 36
31 33 32 32 30 27 30 21 19 14 6 7 13 17 22 24 25 26 27 28 21 17 28 32 35 41 43 38 35 33 29 6 4 3 10 6 13 41 28 32 33 25 39 46 32
36 35 36 36 29 28 28 24 20 16 21 24 26 29 34 36 33 31 31 32 32 32 34 25 39 26 21 25 24 26 21 15 7 5 14 28 15 51 46 53 53 38 35 24 16
42 43 44 40 35 25 26 31 40 35 30 33 31 33 41 40 35 36 36 39 34 29 24 20 38 33 20 20 25 27 26 32 36 34 16 34 39 48 57 43 36 21 10 24 29
41 41 43 35 32 35 32 45 42 43 39 34 28 20 28 24 22 19 18 19 24 24 23 32 34 42 31 24 31 31 32 16 11 4 8 12 32 31 53 61 55 40 35 39 36
34 36 37 31 28 29 40 44 45 48 43 39 42 37 36 36 32 27 24 27 34 34 33 29 28 35 26 31 32 30 26 31 30 26 12 18 23 46 53 49 45 40 33 33 32
32 33 30 25 24 33 41 44 45 47 45 37 38 41 45 43 47 50 45 44 38 29 21 33 34 31 47 34 36 37 40 37 28 18 34 28 24 42 38 40 49 54 47 44 37
30 31 32 31 31 36 40 41 40 44 45 41 39 38 38 39 38 35 33 36 34 32 25 22 17 12 17 26 27 24 27 26 28 30 26 18 15 36 36 40 49 55 54 52 41
26 27 31 33 39 41 39 38 39 41 43 39 40 38 40 44 46 47 44 36 37 33 30 34 36 31 28 31 40 35 36 40 32 28 32 34 40 39 39 39 40 46 49 56 62
25 28 30 27 30 30 34 39 43 43 41 40 38 38 36 36 36 37 38 35 37 38 40 43 40 40 44 43 39 37 38 42 48 43 31 42 43 39 52 58 59 62 64 67 63
26 28 31 34 35 37 37 41 41 44 39 42 41 45 45 44 46 45 44 39 38 36 32 26 23 24 36 39 43 45 49 52 50 53 44 40 36 37 40 45 45 40 43 49 54
28 30 31 35 37 37 41 42 42 39 39 36 39 37 41 43 47 48 49 46 43 41 43 41 36 34 38 40 30 30 48 42 42 44 42 40 41 38 29 31 30 29 32 33 36

GFSSW_700_spd_006.txt.gz
Wind_Speed
12 11 11 11 11 11 11 11 11 10 10 11 11 12 12 12 12 13 13 13 14 14 14 14 14 14 14 14 15 16 16 16 18 17 18 21 21 20 20 18 14 13 13 14 12
14 14 14 13 14 13 14 14 14 14 14 15 15 15 15 15 14 15 16 15 15 15 15 15 16 16 17 17 18 19 22 21 20 21 24 26 26 24 24 22 15 16 14 18 14
16 16 15 15 15 15 15 15 16 15 16 16 17 18 18 18 16 18 15 12 10 11 13 14 14 15 17 17 18 24 26 24 24 24 26 28 29 29 28 25 20 22 19 19 18
18 18 18 17 17 17 17 17 17 17 17 18 19 19 19 19 11 11 14 17 18 19 19 19 19 19 21 22 23 27 28 26 28 27 29 29 32 33 33 27 22 25 25 23 23
19 19 19 19 18 18 18 18 18 18 19 20 21 21 21 22 14 19 20 20 19 19 17 17 18 18 22 25 27 32 32 30 31 32 32 30 29 34 36 29 26 26 26 27 27
22 22 23 22 22 22 22 21 21 21 21 22 22 23 23 24 16 15 15 16 19 21 22 22 23 23 27 29 29 34 35 35 35 34 34 36 31 34 33 29 28 27 28 27 29
25 25 25 25 25 25 25 25 25 25 25 25 25 26 27 24 23 22 22 23 25 25 25 25 26 28 30 32 31 27 30 34 36 32 32 30 36 34 31 34 33 30 29 31 30
24 24 24 24 23 24 24 24 24 24 24 24 25 26 29 27 26 25 24 25 26 28 28 29 29 29 28 30 32 32 33 35 35 35 31 29 37 35 32 35 35 34 31 30 28
25 25 24 23 23 24 25 25 24 25 24 24 25 25 27 26 22 18 17 17 17 18 20 23 25 24 25 29 27 27 22 27 38 37 33 23 30 41 39 40 38 33 29 25 23
26 25 24 23 23 24 25 25 24 25 24 23 24 23 20 20 18 13 13 15 19 26 29 29 29 27 31 28 22 23 29 29 34 36 40 42 43 38 34 33 30 26 18 19 15
26 25 24 24 23 24 24 24 25 25 25 24 21 23 21 19 21 25 28 28 28 29 29 29 29 30 30 29 30 34 34 34 37 33 38 37 39 38 36 32 20 19 23 18 7
26 26 25 24 24 25 24 24 25 29 34 28 28 30 29 28 30 29 31 34 34 34 30 31 33 31 29 29 30 30 32 37 33 27 34 35 38 29 12 24 15 7 11 4 7
26 25 23 23 24 25 24 25 26 29 35 39 34 33 31 32 36 36 37 39 40 39 38 37 32 30 31 28 26 30 30 28 27 30 34 31 28 18 22 6 15 14 4 6 4
28 27 25 25 25 26 25 25 27 29 28 25 14 11 14 19 26 31 34 36 38 38 37 28 25 16 15 18 19 26 25 23 27 27 20 28 17 22 7 11 2 7 5 4 12
28 26 23 24 26 23 23 20 19 17 7 4 6 7 3 4 4 0 1 7 18 22 21 17 18 24 25 25 31 29 22 26 32 29 29 18 14 10 13 5 16 5 10 17 31
29 28 25 24 20 20 21 16 17 10 9 3 7 5 5 5 5 5 9 10 9 13 19 24 31 34 34 31 29 27 29 30 24 18 11 16 10 8 5 12 14 17 19 28 40
26 29 27 26 19 19 18 19 12 10 4 7 15 17 16 13 13 12 12 16 21 16 25 29 32 31 27 29 31 29 31 12 8 7 13 15 17 20 13 24 30 29 34 44 47
22 24 26 29 24 19 19 16 15 10 17 10 11 14 14 15 23 29 32 36 36 30 30 19 28 21 24 24 22 20 17 12 8 15 20 23 16 23 17 22 26 33 40 28 20
22 24 26 25 25 21 19 24 17 14 20 25 22 28 29 28 19 14 18 27 27 24 22 22 27 21 21 18 14 18 21 25 25 31 15 34 40 42 34 34 32 25 19 24 27
29 31 33 30 34 27 23 33 31 23 26 19 20 13 17 18 19 14 13 12 15 19 19 22 18 26 20 25 28 26 23 19 18 8 20 24 32 28 24 30 35 37 31 30 28
31 33 37 33 30 28 37 43 42 41 27 21 24 22 24 20 22 18 23 27 28 26 26 21 24 36 23 27 33 29 27 23 23 23 7 10 21 33 37 36 34 33 32 35 34
36 35 36 32 29 34 41 41 39 35 19 23 28 27 29 26 28 25 26 25 26 29 30 28 24 28 39 32 27 22 28 30 24 17 29 31 34 33 28 34 41 47 44 28 34
31 30 30 28 30 33 34 33 31 34 33 28 29 29 25 23 22 23 26 21 19 21 18 20 12 12 20 29 28 26 27 33 30 28 29 15 6 18 29 35 36 45 44 42 50
27 25 28 31 34 31 29 32 32 33 31 28 30 29 28 29 29 29 27 26 26 29 27 27 35 33 32 34 25 23 24 22 24 22 28 35 42 41 38 35 37 38 47 56 59
24 26 27 20 27 28 27 31 31 30 28 24 26 25 22 23 22 31 31 33 34 33 32 26 35 37 37 39 39 40 40 42 37 41 34 43 41 52 52 48 51 54 55 55 51
27 28 28 28 29 27 28 34 33 31 31 32 31 29 29 30 31 38 33 34 37 38 31 32 36 36 48 49 40 37 42 49 43 45 41 43 44 41 41 44 46 45 45 43 43
27 27 27 29 30 29 32 31 32 30 28 30 31 31 31 30 30 30 33 35 36 39 40 33 33 29 36 29 28 24 40 40 42 44 48 45 45 38 38 37 36 35 33 34 35

GFSSW_700_spd_009.txt.gz
Wind_Speed
12 11 11 11 11 11 11 11 11 11 11 12 11 12 12 12 12 12 12 12 13 14 14 14 14 15 15 15 15 14 10 11 13 10 6 15 18 20 20 17 15 18 13 13 17
14 14 14 14 14 15 14 14 14 14 15 16 16 16 16 15 15 15 16 14 14 14 13 13 13 14 17 17 18 17 13 12 14 17 20 19 23 27 26 22 19 20 20 23 20
17 17 17 17 16 17 17 16 16 17 17 17 18 18 17 17 16 17 15 10 9 9 10 13 16 16 18 18 19 21 22 15 20 23 25 27 26 27 27 25 20 20 21 24 24
19 19 19 18 18 18 18 18 18 18 19 19 20 20 20 18 12 11 13 14 16 18 17 16 16 17 19 22 21 26 25 24 25 27 28 28 28 30 31 29 22 23 25 25 26
21 20 20 19 19 19 19 19 19 19 19 19 20 21 21 20 17 19 22 20 19 19 16 14 14 15 20 18 24 31 29 28 31 32 31 29 28 31 32 28 22 23 25 27 27
23 22 21 22 22 22 22 22 22 23 22 22 22 23 23 23 18 16 19 17 16 19 21 21 22 22 26 28 29 30 35 33 31 31 33 27 27 27 27 25 26 26 26 28 29
26 26 25 24 25 25 25 24 24 24 25 24 24 26 27 26 24 22 23 24 25 25 25 24 25 25 29 31 33 27 31 33 32 24 25 27 33 25 21 21 31 32 29 28 28
26 26 25 25 25 25 25 25 25 25 24 24 25 25 28 27 26 25 24 26 28 28 28 26 26 26 28 31 31 31 25 24 14 24 20 19 31 21 27 34 30 28 25 25 24
26 26 26 26 26 26 25 25 26 26 25 24 24 24 26 26 24 22 20 20 20 21 20 19 20 21 25 26 19 16 20 21 20 20 19 14 20 32 26 26 26 24 24 21 18
26 26 26 26 26 26 27 27 27 27 26 24 25 23 22 23 25 26 24 23 21 19 21 23 26 25 27 20 22 22 26 26 28 28 27 29 28 28 30 27 21 14 13 16 20
26 25 26 26 26 26 26 27 27 28 27 25 22 20 17 17 18 17 18 22 25 28 29 28 26 22 23 21 25 27 27 28 29 25 26 30 24 30 19 18 21 22 17 15 18
26 25 26 26 26 25 25 26 27 30 34 28 29 31 30 28 31 30 32 35 34 31 29 28 30 26 22 27 28 30 24 26 23 16 24 27 31 29 13 20 19 14 13 17 14
29 27 26 25 25 25 25 26 27 29 35 39 36 35 33 33 38 40 39 41 39 33 33 32 23 21 29 31 30 26 23 24 23 22 25 19 22 22 16 14 18 16 22 18 13
30 28 24 23 25 26 26 26 27 28 26 21 18 18 18 27 31 37 39 38 39 32 23 23 25 21 20 14 14 21 18 22 24 20 17 17 17 20 10 10 9 12 19 18 14
27 30 26 24 22 24 25 24 22 19 8 7 9 9 8 8 7 5 7 16 26 26 22 12 14 15 14 17 17 20 24 24 27 28 23 17 13 11 17 13 17 22 19 15 16
24 23 27 23 24 25 21 19 18 8 9 7 8 7 8 8 8 5 4 4 3 7 12 13 21 19 21 26 24 27 29 28 29 22 14 21 18 13 7 9 24 26 19 19 23
29 30 23 23 26 26 24 18 7 9 1 3 11 10 10 10 10 7 8 12 8 10 13 16 22 31 30 26 25 24 23 14 12 11 14 17 12 21 12 17 23 21 27 33 35
28 24 17 20 20 23 22 22 14 5 11 8 7 8 10 13 13 19 20 22 18 23 18 20 26 19 16 16 16 17 14 15 11 13 16 20 12 18 19 23 24 29 32 31 35
24 21 13 18 21 21 18 20 14 12 16 19 21 23 24 22 22 23 22 30 30 22 14 16 19 11 20 20 18 11 12 15 13 26 15 27 31 30 34 34 36 36 35 35 27
21 20 22 24 27 26 26 32 24 22 24 24 21 15 18 14 13 11 16 22 19 11 12 13 17 22 16 18 23 22 22 17 11 4 7 17 31 31 30 30 30 24 28 31 29
30 24 26 30 26 23 32 35 34 33 31 22 20 23 22 16 16 16 13 17 18 20 22 23 16 35 24 24 23 20 21 21 23 25 13 17 24 33 26 29 33 34 30 30 32
29 30 29 30 28 36 42 40 33 35 28 25 29 30 27 24 23 24 26 23 15 16 19 17 19 25 37 33 30 33 31 27 29 12 23 25 26 37 41 42 44 39 34 38 42
35 35 33 33 35 40 40 38 33 34 25 21 25 23 19 20 16 21 23 21 26 28 15 11 8 11 19 22 19 22 23 25 33 40 43 26 30 38 38 39 30 36 44 48 48
33 31 36 35 39 35 32 33 25 23 21 27 28 23 23 22 23 20 18 16 23 26 25 26 27 27 26 29 32 33 30 31 29 27 30 32 35 32 31 30 34 37 41 43 58
34 37 39 27 39 38 31 27 23 24 26 25 24 27 24 24 21 25 24 22 27 30 30 23 27 28 30 32 34 36 35 37 41 49 43 49 43 49 49 50 46 47 51 50 50
34 36 35 35 32 29 32 33 30 20 26 23 24 13 15 21 23 22 20 18 23 24 24 19 23 23 34 36 37 40 46 50 43 45 46 43 45 42 39 40 41 39 41 45 47
32 32 31 31 32 30 32 33 31 26 28 30 28 27 29 28 29 31 31 32 31 33 32 27 27 26 35 30 30 28 46 38 41 41 40 41 40 39 39 42 45 45 44 37 34

GFSSW_700_spd_015.txt.gz
Wind_Speed
9 9 8 8 8 9 9 9 9 9 10 10 10 10 11 11 12 10 10 11 11 12 11 11 11 10 9 8 7 7 5 3 1 4 4 8 16 18 19 18 15 15 14 9 11
12 11 11 11 11 11 11 11 12 12 12 12 12 13 13 13 13 13 13 13 12 11 10 9 9 11 12 11 8 9 9 3 6 9 14 15 18 22 23 22 14 15 14 15 17
14 13 14 14 13 13 14 14 14 14 15 15 15 15 15 14 14 14 12 8 6 7 7 10 14 14 14 16 12 12 10 8 7 13 18 19 19 21 23 23 14 16 16 15 20
17 16 16 16 16 16 15 15 16 15 16 16 17 16 16 14 9 7 11 13 13 14 15 15 15 15 14 13 11 15 13 13 15 13 19 22 19 18 20 19 18 15 16 17 16
19 19 19 19 18 18 17 17 16 17 17 18 19 19 18 17 14 14 15 16 16 16 17 16 13 14 15 14 16 20 22 21 21 20 21 23 19 18 15 18 16 13 12 16 19
21 21 20 20 20 19 19 19 20 20 20 20 21 21 21 20 17 14 15 16 15 15 14 14 17 20 21 22 20 24 25 24 22 22 20 18 11 15 14 17 16 18 19 23 25
23 23 22 22 22 22 22 22 21 21 21 21 22 21 21 20 19 19 18 19 21 21 21 23 23 21 23 24 22 19 23 25 20 8 14 17 15 17 19 18 15 15 18 23 25
25 25 24 24 23 22 22 22 21 21 21 21 21 22 22 22 21 21 21 21 22 23 24 26 25 25 25 26 27 24 22 18 12 13 19 15 21 24 20 17 13 18 23 24 25
25 25 25 23 23 22 22 22 23 22 22 22 23 22 23 22 20 18 18 17 18 20 22 24 23 21 21 22 20 17 17 15 9 11 15 19 26 26 16 16 20 22 24 25 26
26 24 24 24 23 23 23 22 23 24 23 23 23 22 20 20 19 20 21 21 22 22 23 22 21 21 21 20 18 17 16 13 18 20 25 29 29 20 18 20 22 20 23 24 27
26 23 22 24 24 23 23 22 22 24 23 23 22 24 24 23 24 23 23 23 23 21 19 17 21 21 17 20 21 16 18 22 24 22 28 26 24 21 24 10 20 23 26 25 27
25 24 22 24 24 25 24 23 23 25 27 25 26 28 30 27 29 27 29 32 31 28 26 26 27 22 18 18 19 20 26 29 28 23 18 20 25 28 21 22 19 24 28 30 27
27 28 30 31 31 29 29 26 25 26 30 33 31 30 29 28 33 33 35 37 35 32 29 30 24 19 18 17 20 24 25 27 24 15 19 25 28 22 21 27 25 27 27 31 30
32 31 32 32 32 30 27 24 20 19 22 20 16 16 17 20 24 28 29 31 34 31 26 21 18 16 16 26 25 28 24 15 13 16 16 12 12 23 15 17 24 27 27 28 29
33 30 30 30 30 25 24 19 14 12 5 4 10 10 11 7 6 5 6 12 22 23 19 14 7 9 11 9 5 8 9 12 16 20 22 20 13 15 22 20 21 24 24 25 25
32 31 30 27 27 24 24 18 11 7 9 7 9 10 12 12 9 7 4 4 2 2 10 14 16 12 11 8 10 12 14 14 18 19 5 14 15 16 10 13 17 20 25 28 23
33 29 24 28 29 25 25 21 10 10 4 8 12 11 10 8 7 7 5 5 3 2 4 3 7 11 13 13 15 15 12 4 1 4 7 12 7 20 17 15 16 19 19 21 24
36 29 28 32 31 27 24 20 15 9 20 10 11 9 9 9 9 10 13 16 16 14 14 13 12 12 13 15 12 12 13 7 5 3 4 16 11 16 20 18 13 15 19 21 22
33 30 34 37 32 33 28 29 18 27 17 25 19 15 13 12 14 16 22 28 29 27 21 12 12 15 21 16 14 10 16 16 14 16 7 13 17 25 26 26 21 15 19 21 22
35 30 28 23 22 28 28 30 22 18 21 24 24 15 15 15 17 13 19 13 16 23 25 15 13 18 23 23 15 14 13 8 7 2 4 9 16 18 9 15 14 12 15 18 24
34 20 22 23 24 31 34 33 31 28 24 23 24 23 18 19 19 18 13 16 15 16 18 20 19 15 17 14 14 13 17 18 17 18 4 2 10 14 13 14 21 25 28 30 28
20 20 24 27 34 37 36 39 36 33 29 26 30 31 34 31 30 30 28 25 17 21 25 23 15 22 29 22 14 18 21 20 15 9 16 19 24 34 27 27 23 25 30 29 23
29 28 29 29 35 40 42 39 33 36 33 33 35 35 35 31 26 28 33 31 29 23 18 24 15 15 17 18 15 21 22 17 15 19 26 16 23 29 29 32 31 40 41 44 45
33 28 32 34 36 33 31 31 32 34 33 34 36 33 32 30 29 23 23 24 30 32 29 23 25 23 22 13 7 11 16 18 27 18 22 30 37 42 42 46 48 50 51 46 40
31 32 34 24 33 31 32 33 32 35 33 30 30 33 27 26 26 30 25 21 21 22 22 22 28 27 30 31 32 34 37 42 38 39 30 47 41 49 49 49 47 43 40 36 36
24 22 24 27 27 32 33 37 36 27 26 32 34 31 27 37 33 28 31 34 30 25 28 28 28 25 31 32 32 34 39 39 40 44 47 49 49 37 35 34 35 36 36 39 41
29 28 28 33 35 39 43 38 34 31 35 34 32 29 28 28 30 32 32 29 29 27 29 24 21 17 27 27 22 22 43 40 38 34 33 34 31 26 30 33 36 36 39 42 43

GFSSW_700_spd_021.txt.gz
Wind_Speed
9 9 8 7 7 7 7 7 7 6 6 6 6 7 7 7 8 8 9 9 9 9 10 9 8 8 6 5 4 4 4 3 6 6 6 7 9 12 13 14 17 19 14 15 16
12 11 10 10 9 9 9 8 9 9 8 9 9 9 10 9 10 10 11 11 11 10 10 9 7 6 6 8 9 7 7 5 7 7 7 9 12 16 16 15 13 16 18 18 19
15 14 13 12 12 11 11 11 11 11 11 11 11 11 11 11 10 11 10 6 6 6 6 7 8 10 11 11 10 9 7 7 8 9 11 12 12 16 17 13 15 15 13 16 19
17 16 15 15 14 14 14 14 14 14 14 13 13 13 12 11 7 6 7 8 10 12 12 13 13 13 12 12 10 9 7 7 8 11 13 15 14 15 14 8 8 13 15 15 16
19 18 17 17 17 17 16 16 16 16 16 15 15 15 14 13 11 13 14 14 13 13 13 14 13 12 12 9 13 16 12 12 12 11 13 15 13 13 6 7 11 10 13 17 20
22 21 20 19 20 20 19 18 18 17 17 16 17 17 16 14 13 14 14 14 13 13 14 14 14 14 15 15 18 19 19 18 14 12 16 12 10 10 6 11 15 16 16 15 17
24 23 22 22 22 21 20 20 19 19 19 18 19 19 18 15 16 16 16 16 17 17 17 17 17 17 19 19 20 17 19 20 20 9 10 10 13 12 9 14 18 19 18 18 19
27 26 25 24 23 22 21 21 21 20 20 20 20 21 21 19 18 17 18 19 19 20 20 20 19 20 22 22 23 22 22 21 8 10 12 13 16 13 13 19 20 20 22 22 23
29 27 26 26 25 23 23 22 22 21 21 21 21 22 23 22 20 18 18 18 19 20 21 21 21 22 24 23 22 19 16 17 16 13 14 15 19 15 20 20 20 19 20 23 22
30 29 28 27 27 25 24 24 23 23 22 22 22 21 21 21 19 17 16 16 17 18 20 19 20 22 24 22 22 19 15 14 18 20 20 20 25 22 20 24 22 21 19 20 23
32 31 29 29 29 27 26 24 24 25 24 23 20 17 18 20 20 20 21 22 22 22 22 21 23 24 19 16 16 17 20 20 23 22 27 28 27 24 24 24 21 19 19 23 26
33 32 30 30 29 27 26 25 23 24 25 24 23 25 25 26 26 26 26 27 27 26 25 25 27 21 19 20 21 22 24 29 27 21 26 25 29 29 19 19 19 20 25 25 26
34 32 31 31 30 28 26 23 23 24 29 33 32 32 32 32 34 34 33 34 33 32 31 31 26 17 19 20 24 26 26 25 25 25 26 30 35 26 20 20 20 26 23 24 23
35 33 32 33 32 28 26 24 24 24 22 32 35 31 31 35 40 37 38 37 35 32 29 24 26 26 27 28 25 26 26 26 27 26 23 14 8 9 18 21 21 22 23 21 18
36 34 34 35 33 28 25 24 22 19 6 10 18 19 17 22 24 21 30 33 29 27 23 14 13 12 16 16 21 25 19 13 11 13 16 17 14 10 9 17 24 21 20 19 18
37 36 36 37 34 28 26 23 19 12 12 10 14 16 21 19 18 14 14 16 15 19 19 18 18 17 15 12 14 12 12 11 13 16 6 24 22 7 8 13 17 14 14 17 19
37 38 39 38 34 31 29 25 16 15 10 15 19 22 21 20 21 19 17 17 14 14 15 12 15 14 16 15 17 19 13 3 3 2 6 9 14 24 13 14 13 11 13 16 20
43 42 42 41 37 36 34 31 25 25 37 19 16 24 24 20 20 20 20 19 19 16 9 10 8 16 16 20 18 25 25 11 7 3 4 7 10 10 11 21 18 16 21 19 22
48 47 51 51 44 39 39 40 38 40 31 31 24 26 28 24 19 20 23 25 22 20 13 8 12 14 18 18 24 21 31 28 19 15 8 13 20 23 16 20 19 20 25 20 15
52 51 54 52 45 46 51 56 52 36 34 33 38 26 27 29 28 25 24 18 29 26 22 16 18 22 20 22 23 29 21 12 13 2 4 8 13 19 16 14 17 16 12 13 11
52 50 53 49 50 52 53 53 46 43 36 35 40 33 27 26 31 35 21 23 20 19 19 19 21 18 18 24 28 27 29 21 18 21 5 2 13 14 14 17 15 15 13 13 15
53 58 58 57 59 62 59 58 55 41 43 37 37 41 35 30 31 35 35 32 15 24 24 20 14 20 30 23 24 30 32 31 27 14 14 15 32 21 20 16 16 15 19 18 20
55 55 54 58 60 59 51 49 49 47 42 44 43 37 35 33 29 30 35 30 30 28 19 22 17 15 14 21 25 29 35 36 37 33 29 14 20 22 24 15 20 23 26 29 31
46 48 44 45 59 61 58 47 43 44 42 42 38 37 32 34 33 22 29 29 33 32 30 29 31 27 28 19 9 24 34 37 35 28 31 38 37 30 31 33 31 31 35 41 42
45 39 45 56 59 64 62 39 35 33 37 41 43 42 38 39 39 37 36 34 33 30 26 30 36 35 37 40 40 38 37 36 35 38 30 33 33 36 35 37 42 44 42 43 40
45 49 42 42 59 56 39 36 36 28 32 36 47 42 39 43 43 32 32 34 36 28 29 37 37 34 39 42 43 43 44 38 40 37 38 40 49 47 47 47 45 43 39 34 33
46 55 50 35 39 43 44 45 45 40 39 41 43 45 41 37 28 27 26 28 27 25 29 30 34 35 33 32 30 32 51 47 45 46 46 44 46 41 38 36 34 32 36 37 38

GFSSW_700_spd_024.txt.gz
Wind_Speed
10 9 8 8 8 7 7 6 7 7 7 7 7 6 6 7 7 7 8 8 8 8 9 9 8 8 6 4 4 3 3 3 5 5 5 5 6 8 10 13 15 18 15 14 14
12 11 10 10 9 9 9 9 9 9 9 9 9 9 9 9 9 9 9 9 9 9 9 8 8 7 6 6 6 6 6 4 5 6 6 7 9 12 12 13 14 13 17 16 14
15 14 12 12 12 11 11 11 11 11 10 10 10 10 10 10 10 11 9 7 5 4 5 5 7 8 10 10 8 7 6 5 6 7 8 11 12 13 14 12 16 11 10 13 14
18 17 16 15 14 14 13 13 13 13 12 12 12 12 12 11 7 6 7 7 8 9 9 10 11 12 12 11 9 7 5 6 7 10 12 13 15 14 13 12 10 12 14 13 13
21 20 18 18 17 16 15 15 15 15 14 14 14 15 14 12 12 13 13 13 13 12 12 13 12 11 10 9 9 10 10 12 11 13 15 15 14 17 8 10 8 9 12 15 17
24 23 22 21 20 19 18 17 17 17 17 17 16 16 16 14 13 14 14 13 13 13 13 13 13 12 13 12 14 16 17 15 13 11 15 17 14 13 9 10 11 13 15 16 16
27 25 24 23 23 22 21 20 19 19 19 19 19 19 18 15 15 15 15 15 15 16 16 16 16 16 15 15 16 16 17 19 19 15 11 10 11 10 12 14 15 18 19 18 18
29 28 26 25 25 24 23 22 21 21 20 20 20 21 21 18 17 17 17 18 18 18 19 19 19 20 19 20 20 20 22 19 10 7 10 11 13 11 14 17 19 21 21 20 20
31 30 29 28 27 26 25 24 23 22 22 21 22 22 23 22 20 19 19 20 21 21 21 21 21 21 21 21 20 19 16 19 15 16 12 13 17 15 16 19 23 22 23 21 22
33 32 31 29 28 27 26 25 24 24 24 23 23 22 21 20 18 16 14 15 17 18 19 20 21 21 23 21 21 18 16 17 19 14 14 17 21 21 24 26 26 25 25 21 20
35 34 32 32 30 28 27 26 25 26 26 25 22 19 19 19 16 14 15 17 19 20 21 22 24 26 20 15 14 18 20 20 20 19 24 25 27 27 25 28 28 30 24 20 20
37 36 35 33 32 29 29 28 26 27 28 27 26 26 25 25 25 24 24 25 26 26 24 26 28 21 19 19 21 22 22 26 24 24 27 26 29 28 29 30 28 24 20 21 24
38 37 36 35 34 31 29 26 25 25 29 33 31 31 30 29 31 30 31 32 32 31 29 30 24 19 20 22 25 26 27 27 26 24 26 30 36 31 28 25 22 23 22 23 26
39 38 37 36 36 31 29 25 24 22 22 34 36 36 35 36 41 38 39 39 37 34 30 27 29 31 32 34 30 30 28 24 22 21 20 14 7 7 9 13 18 22 23 25 24
40 39 39 38 36 31 25 24 21 18 6 11 21 23 22 30 34 29 32 39 40 36 32 27 20 18 22 24 25 23 23 19 20 19 18 18 12 10 9 11 15 18 24 25 21
41 39 40 42 37 30 26 24 21 13 12 11 14 17 22 23 26 25 22 23 26 28 31 29 24 18 16 14 16 17 15 14 11 12 7 25 22 9 15 11 13 20 22 19 18
42 40 41 42 36 30 30 27 20 17 14 18 22 19 19 22 24 25 22 22 19 17 23 20 21 22 18 14 15 16 12 2 3 3 6 9 15 26 13 12 11 15 16 16 18
43 41 39 40 35 34 35 35 23 30 43 19 12 23 26 24 25 26 26 24 24 21 10 15 8 18 19 22 14 18 22 9 6 3 4 3 9 6 8 14 14 16 18 21 20
43 49 52 54 42 41 43 43 48 48 31 39 34 29 26 27 27 26 31 32 29 26 17 13 12 15 17 15 20 15 24 25 15 16 8 10 15 16 18 20 16 16 20 24 24
53 48 56 52 49 48 53 55 59 47 37 34 41 27 32 34 34 29 26 22 34 28 26 16 8 14 16 20 22 29 17 12 15 2 5 7 11 14 10 14 16 17 18 23 24
55 62 68 53 47 55 59 56 58 55 41 35 40 34 34 34 38 41 31 25 19 23 29 28 21 10 18 22 27 25 27 20 18 17 5 3 9 5 10 12 8 11 19 19 17
67 63 62 52 54 60 68 66 61 55 57 40 44 45 41 39 37 41 41 35 23 26 31 33 15 19 28 25 21 24 28 28 28 13 12 9 33 24 27 27 20 17 19 19 18
50 60 56 50 58 60 63 64 58 50 45 51 48 45 44 40 36 38 39 35 29 27 28 27 20 12 8 18 24 31 34 35 37 34 31 13 22 19 20 22 19 20 22 23 24
37 44 50 50 56 65 65 63 63 55 56 46 51 45 43 47 43 29 39 37 35 34 31 26 29 24 22 13 9 26 33 39 39 30 29 40 42 41 33 27 30 32 33 31 32
47 39 47 49 62 61 59 63 58 55 54 51 53 56 49 43 50 49 32 34 33 34 32 30 33 33 35 35 33 34 38 34 35 36 34 41 41 40 39 37 35 34 34 38 42
36 35 39 45 50 60 59 62 59 57 53 54 57 51 51 50 48 47 45 35 32 33 34 33 28 26 30 32 35 39 46 45 44 39 42 45 51 46 43 39 40 45 43 41 40
38 36 33 39 42 52 52 50 53 55 50 51 49 43 33 37 39 38 31 32 38 33 37 33 29 23 27 30 31 34 47 50 49 48 47 46 51 44 41 41 37 37 35 32 30

GFSSW_700_spd_030.txt.gz
Wind_Speed
12 12 11 12 12 12 12 11 10 9 8 8 7 7 7 7 7 7 7 8 7 7 7 7 6 6 5 4 5 5 5 7 8 12 11 11 9 8 7 8 8 7 7 6 7
13 13 12 12 12 12 12 11 11 9 9 9 8 8 8 7 8 8 8 9 9 8 8 8 7 6 6 5 5 6 6 7 8 10 11 11 11 9 9 9 11 10 8 7 5
16 15 14 13 13 13 13 12 11 10 10 10 9 9 8 8 8 10 10 10 10 10 9 8 7 7 7 7 7 7 8 8 8 9 10 11 11 11 11 11 12 12 9 6 5
19 18 17 16 15 14 14 13 12 12 11 11 10 10 9 9 6 8 8 7 7 7 7 8 9 10 9 9 8 7 8 8 8 8 9 12 12 13 13 14 12 11 8 7 6
23 22 20 19 18 17 16 15 14 14 13 13 12 12 12 12 12 12 12 12 12 12 12 12 12 11 10 8 8 8 9 9 9 11 13 14 14 17 15 14 13 11 10 9 8
26 25 24 22 21 20 19 18 17 17 16 15 15 15 16 15 14 15 15 15 14 14 14 14 13 12 12 10 10 9 11 11 12 14 16 17 17 18 16 14 12 13 13 12 11
30 28 27 25 24 23 22 21 20 19 19 18 18 19 19 17 17 16 15 15 15 15 15 14 14 13 13 11 13 13 14 14 12 14 18 19 22 18 15 13 14 15 15 14 14
33 32 30 29 27 26 24 23 22 22 21 21 22 22 23 20 19 19 18 18 18 18 17 17 16 16 16 15 15 15 17 15 11 11 13 13 11 11 12 13 16 18 18 17 17
35 34 33 32 30 28 27 26 25 24 24 24 24 24 25 24 21 20 20 20 20 21 20 20 19 19 19 17 18 17 12 16 15 14 14 15 12 13 15 15 18 19 20 20 21
38 37 36 35 33 30 29 28 28 27 26 26 27 24 24 17 11 14 20 23 23 23 23 23 22 23 23 21 14 11 15 19 18 13 14 18 19 18 17 18 20 22 22 24 24
39 38 38 37 36 33 31 30 29 30 30 28 26 20 23 21 16 17 20 21 21 22 23 23 23 26 20 17 20 19 21 22 22 18 19 20 22 21 24 25 26 28 29 28 25
41 39 39 39 37 36 34 32 30 32 33 32 32 32 31 28 24 22 20 22 23 23 22 23 27 20 19 22 22 24 23 25 24 23 23 25 29 27 30 31 32 31 30 28 26
43 41 40 41 40 39 35 31 30 30 35 39 37 36 33 31 31 32 29 27 26 26 26 27 23 20 21 25 25 27 26 26 24 25 27 28 33 31 30 30 29 30 31 29 26
44 42 44 42 46 39 37 30 29 28 27 41 40 42 41 35 39 33 33 33 33 31 28 25 30 30 30 30 26 28 29 27 26 23 16 13 10 16 20 19 18 13 14 16 18
47 43 45 46 47 42 31 30 27 22 9 16 28 34 35 38 39 38 39 38 37 35 32 26 26 27 28 31 27 29 27 25 23 23 23 20 12 16 17 17 15 16 15 15 16
50 54 49 49 50 41 31 30 26 15 16 13 17 22 29 34 40 41 36 39 40 38 37 37 36 33 31 28 25 26 20 19 14 14 12 25 21 10 18 16 17 18 18 17 16
47 54 62 51 53 40 34 31 25 28 18 23 25 22 24 31 33 37 38 38 36 25 35 38 38 35 34 30 26 23 16 5 5 6 6 11 15 19 13 15 16 18 18 17 18
48 47 57 62 51 42 39 39 26 49 49 24 19 31 28 27 32 32 33 34 34 34 18 18 13 24 30 35 27 29 23 9 7 6 2 11 10 11 24 21 18 17 18 19 18
47 49 51 60 62 45 46 50 69 50 36 42 26 28 34 32 26 31 34 37 35 34 28 14 18 19 23 26 31 25 31 27 7 7 3 10 14 13 17 22 20 20 22 22 18
50 48 55 54 58 48 55 67 61 43 37 33 48 28 35 37 35 32 32 31 38 36 31 23 16 17 24 24 30 26 23 16 14 5 6 7 10 15 24 24 24 25 22 21 21
48 48 59 57 51 57 59 74 62 41 33 37 40 35 36 36 41 42 37 32 22 22 28 34 25 17 24 33 36 33 27 21 16 18 4 4 7 6 19 19 23 21 21 19 18
54 58 56 54 58 62 67 75 60 48 42 38 40 43 42 39 38 41 48 44 29 28 31 34 21 26 31 28 38 39 33 42 22 11 18 15 15 12 16 25 24 20 19 19 19
46 63 62 48 68 67 72 66 68 64 52 56 46 44 42 40 37 41 44 40 40 39 37 31 25 21 17 27 32 42 44 43 44 26 30 13 11 18 22 25 22 20 21 18 18
40 45 58 53 61 71 71 71 70 67 61 57 59 51 40 41 44 39 41 37 42 44 39 36 38 36 37 25 29 45 48 50 48 34 34 46 28 23 27 26 24 29 27 28 22
28 41 33 47 64 65 70 69 72 68 68 51 50 62 60 51 48 59 49 41 39 41 43 46 47 47 52 44 36 33 38 52 57 60 33 41 44 41 36 34 31 30 32 30 29
40 31 43 43 62 59 64 75 71 73 63 58 69 60 56 56 64 56 57 52 57 44 47 53 50 45 52 52 47 44 42 40 44 56 59 42 47 35 34 33 36 36 35 34 33
42 41 26 36 45 49 65 65 71 63 67 76 70 64 61 78 64 57 53 51 55 51 52 56 55 40 39 47 43 36 63 49 47 47 48 48 51 45 41 37 35 36 36 34 30

GFSSW_700_spd_033.txt.gz
Wind_Speed
11 11 11 11 11 11 11 10 10 10 10 10 10 9 9 8 9 9 8 9 8 8 8 8 7 7 7 6 6 6 5 8 8 10 10 12 12 12 9 10 9 7 7 8 8
12 11 11 11 11 11 11 11 11 11 11 11 10 10 10 10 10 10 10 10 10 10 10 9 8 7 7 6 6 7 6 8 11 10 9 13 13 13 10 10 12 9 8 8 8
15 14 13 12 12 12 12 13 13 12 12 12 11 11 10 10 11 11 11 11 11 11 11 10 9 8 8 8 8 10 7 14 13 14 14 15 14 13 11 11 12 13 9 8 8
18 18 16 15 15 15 14 14 14 14 14 13 12 12 11 10 7 9 11 11 10 10 9 9 8 8 10 11 10 10 13 12 13 12 13 14 17 14 14 16 14 13 12 11 10
22 21 20 19 18 17 16 16 16 16 15 15 14 13 13 13 14 13 10 9 9 10 10 11 12 12 11 12 12 12 13 12 12 11 12 14 15 18 18 17 16 15 15 13 11
26 25 24 23 21 20 19 19 19 19 18 16 16 16 16 16 15 16 16 17 17 16 16 15 15 15 15 13 13 11 12 14 14 15 16 16 18 21 19 17 18 19 17 14 14
30 29 28 27 25 24 22 22 21 21 20 19 19 20 20 19 18 18 18 18 18 19 18 17 16 15 14 13 15 15 15 16 18 18 18 16 21 22 22 20 21 18 17 17 16
34 32 31 30 28 27 25 24 24 23 23 22 22 22 24 21 20 21 21 20 20 19 19 18 17 18 17 16 16 14 15 12 14 17 19 15 14 16 13 17 18 18 19 19 18
36 36 34 33 31 29 28 27 26 26 26 25 25 25 28 25 24 23 24 24 23 23 22 21 20 20 19 17 13 16 14 11 10 13 17 18 10 18 15 17 18 21 22 21 21
38 37 37 35 34 32 30 30 30 29 29 28 28 26 27 21 16 19 26 25 25 24 24 24 23 23 23 16 17 13 15 13 14 13 15 19 21 24 19 18 20 22 24 25 25
39 39 38 37 36 34 33 33 32 33 32 30 29 26 27 25 19 22 20 16 21 28 28 27 26 30 24 22 20 18 15 17 14 20 20 22 24 20 25 25 27 28 30 30 29
40 41 40 38 38 37 37 36 33 34 35 34 35 36 35 32 27 23 23 22 24 26 25 27 30 23 20 21 21 22 21 23 18 24 24 25 29 30 28 35 31 33 36 34 31
42 42 41 39 39 41 37 35 32 32 36 42 41 40 37 34 33 34 29 25 25 25 29 27 19 20 24 25 25 26 23 22 19 21 24 27 35 36 32 35 41 37 37 36 34
48 46 42 42 44 40 39 31 30 29 30 37 41 47 46 39 41 37 34 36 35 32 27 25 26 30 27 26 24 22 21 24 25 17 19 13 15 18 15 25 27 27 30 30 32
53 56 45 44 44 43 35 31 29 22 9 18 33 39 38 40 37 40 42 39 38 37 34 23 27 27 31 32 27 22 23 25 24 21 20 24 16 23 21 31 31 29 26 24 22
47 52 56 51 52 42 34 32 25 12 20 15 20 26 31 36 43 42 37 42 41 39 39 34 29 29 27 28 25 26 23 22 21 13 13 26 26 18 22 21 21 23 24 22 19
46 44 64 53 54 51 36 38 20 23 20 30 25 23 24 34 40 42 44 44 41 28 30 32 43 42 38 35 29 25 15 6 6 7 8 12 20 27 14 21 21 23 23 21 19
52 41 54 50 52 48 40 40 19 75 59 25 11 31 33 31 37 39 41 41 44 40 20 22 15 31 34 36 23 23 25 11 6 6 4 11 12 13 22 31 23 19 22 21 21
46 50 52 57 47 52 48 47 56 83 42 53 28 25 34 32 27 36 41 43 40 47 30 20 16 18 16 17 26 15 27 26 17 17 5 12 15 18 18 22 30 26 25 21 20
52 56 55 49 60 55 56 58 69 57 44 29 52 39 32 38 37 29 32 35 41 41 40 17 10 16 20 21 25 26 15 14 15 5 8 13 21 21 18 29 31 30 29 24 23
38 40 57 54 50 60 63 68 72 51 33 46 44 38 39 32 42 43 33 32 26 38 33 31 24 18 21 27 31 33 26 19 17 20 5 6 14 17 25 19 29 31 29 27 25
47 48 49 53 59 63 65 78 60 49 47 41 42 44 37 32 38 46 51 44 29 31 32 38 20 24 28 29 28 30 27 34 20 9 19 19 30 16 12 23 26 32 32 32 29
45 48 49 48 64 59 69 66 60 57 59 56 49 41 41 38 35 46 41 47 41 35 35 34 27 18 22 23 26 37 44 37 42 24 39 15 16 19 26 22 27 34 36 33 31
47 34 50 53 54 65 70 75 64 65 56 63 50 39 42 45 43 34 41 37 41 44 37 35 36 36 36 23 18 31 45 51 45 36 44 56 38 30 25 24 31 35 36 34 27
48 40 32 26 58 64 66 74 76 63 66 61 59 65 56 43 45 57 42 33 33 38 44 46 46 45 55 50 37 27 34 40 58 72 36 59 46 40 39 31 30 33 36 35 32
46 50 46 45 39 53 70 73 67 71 66 67 68 66 61 56 62 49 54 48 45 41 43 47 49 43 58 57 51 46 46 49 50 49 63 67 59 30 35 38 35 37 37 34 33
45 49 47 47 43 42 48 71 69 67 63 75 71 69 58 75 72 68 56 49 50 45 49 48 49 40 42 46 47 29 78 56 63 60 58 58 67 49 39 36 39 39 39 37 36

GFSSW_700_spd_036.txt.gz
Wind_Speed
10 11 11 10 10 9 9 9 9 8 8 8 8 8 8 8 8 8 7 7 7 7 7 7 7 6 5 5 5 5 5 4 5 6 10 14 11 11 8 10 7 6 7 8 6
9 9 9 9 9 9 9 9 9 9 9 9 9 9 9 9 9 8 9 9 9 9 9 8 8 8 7 5 5 6 6 5 11 11 9 15 11 12 11 10 10 9 8 8 8
11 11 10 9 9 9 10 10 10 10 10 10 11 10 10 10 10 9 10 10 10 10 9 9 9 9 7 6 6 8 8 12 14 16 15 15 13 14 10 9 11 9 7 10 10
15 14 13 12 11 11 11 11 12 12 12 12 12 12 11 10 6 7 9 11 10 10 10 9 9 8 7 8 8 10 12 15 16 12 14 15 15 13 14 16 15 15 12 12 12
20 18 17 16 15 14 13 13 14 14 14 14 14 13 13 12 12 12 8 7 7 6 6 7 8 9 8 12 10 11 16 13 14 13 14 15 15 16 18 18 16 18 17 15 14
24 22 21 19 18 17 16 16 16 16 17 17 16 16 15 14 14 13 13 13 13 13 13 14 14 12 14 14 14 14 12 13 13 13 14 15 17 21 17 20 18 21 19 19 17
28 26 25 23 22 21 20 20 19 19 19 20 20 19 19 17 16 16 15 15 16 17 17 16 15 16 16 15 14 15 15 15 15 15 19 18 22 23 18 21 20 21 22 21 20
32 30 28 27 26 25 24 23 22 22 22 22 22 23 23 21 19 19 19 19 18 18 18 17 17 17 15 16 16 14 15 14 14 15 17 19 24 19 17 16 19 23 21 21 20
35 34 32 31 29 28 27 26 26 25 24 24 25 25 27 25 23 22 22 22 21 21 21 20 19 19 17 16 14 15 16 11 13 13 16 15 13 13 17 18 20 21 22 21 21
36 36 35 34 32 31 29 29 29 29 27 27 28 26 26 21 14 12 17 24 24 23 23 23 22 22 22 19 18 9 16 15 16 15 17 19 22 23 23 23 23 22 25 25 24
35 36 36 36 35 32 32 32 31 32 32 29 30 28 29 27 23 18 17 19 18 25 27 25 26 30 24 23 21 20 20 15 14 14 21 26 28 25 25 26 26 28 30 28 29
41 34 36 37 37 36 34 33 33 33 34 33 33 35 37 33 32 27 22 23 23 23 20 25 32 25 24 18 21 21 22 25 24 22 26 29 33 30 29 36 35 32 34 35 35
52 48 38 37 38 39 36 35 30 30 35 41 39 41 39 37 35 34 30 26 24 25 26 29 22 16 19 26 25 26 25 23 21 21 25 29 40 38 34 33 38 39 38 42 42
45 52 49 42 41 38 39 31 27 27 26 41 42 45 46 40 43 39 33 33 33 32 25 26 28 26 24 22 21 24 22 20 22 22 14 11 12 24 21 25 26 31 33 37 37
46 40 54 52 45 41 36 29 25 21 6 16 27 33 38 36 41 41 38 40 40 37 34 27 29 29 33 33 25 25 24 20 23 25 23 29 20 35 22 21 31 34 35 34 29
47 46 40 55 50 50 37 30 21 14 14 14 19 26 29 31 38 37 34 40 42 40 38 37 32 25 27 27 26 29 24 20 22 22 11 29 29 18 30 28 28 28 28 31 32
45 46 45 47 47 50 44 37 24 18 25 32 23 21 20 28 37 39 39 43 41 33 35 39 42 38 33 29 25 23 20 3 3 4 8 9 20 35 9 17 20 22 22 25 26
44 39 47 47 50 49 44 39 14 52 57 27 19 25 29 31 35 37 40 41 44 43 19 30 16 37 41 46 35 26 29 12 6 4 4 11 14 19 18 28 28 24 23 26 28
41 45 45 45 50 44 42 45 42 67 51 52 22 17 27 29 29 29 40 44 45 48 38 20 19 15 20 16 35 20 28 28 16 18 8 15 26 30 24 23 27 26 28 26 26
45 45 52 41 45 48 50 53 66 69 19 28 56 37 27 31 31 29 30 36 46 44 43 26 11 19 25 23 30 26 15 16 19 2 6 9 25 25 11 15 27 28 27 28 27
36 47 51 52 46 55 60 55 63 59 37 44 38 39 46 33 39 41 39 38 29 34 36 39 24 13 24 29 32 37 26 14 13 15 4 4 12 15 21 20 21 25 27 29 28
48 39 53 45 51 63 55 72 62 48 40 42 39 47 36 40 37 44 51 44 25 30 33 40 29 19 30 24 26 31 30 38 24 11 26 22 45 28 18 14 19 21 27 32 32
44 48 38 49 56 57 65 67 67 46 52 39 38 45 51 37 38 47 44 45 45 40 34 39 29 17 13 19 21 32 38 39 36 28 43 12 32 12 16 23 20 22 26 33 36
32 44 50 44 57 47 60 59 63 73 61 46 54 37 41 42 47 39 43 35 44 47 35 33 36 40 38 29 23 34 43 45 45 40 32 55 49 39 29 24 22 23 28 35 40
37 39 50 19 43 57 63 60 63 64 64 64 50 54 54 40 42 54 38 34 36 35 36 40 41 40 48 44 38 33 27 32 52 60 37 62 49 51 49 47 43 34 29 35 38
44 53 39 57 45 43 52 62 59 52 58 57 66 64 58 59 66 68 52 44 41 39 40 42 47 47 53 53 47 52 54 49 39 42 49 58 67 48 46 38 39 44 40 40 40
51 46 34 38 53 63 38 38 46 54 52 57 62 65 54 67 64 62 50 49 48 46 42 43 45 38 46 43 43 30 80 64 65 61 63 63 70 54 52 53 46 41 42 42 42

GFSSW_700_spd_042.txt.gz
Wind_Speed
12 13 13 13 12 13 12 12 12 12 12 11 10 9 9 9 8 8 7 7 7 7 7 6 5 5 5 5 6 7 7 8 5 10 6 5 6 9 10 9 10 7 6 5 4
12 12 12 12 13 12 12 12 12 12 12 11 10 9 9 8 8 8 8 7 8 8 7 7 7 6 6 6 7 8 8 9 7 8 7 6 8 10 13 13 12 11 9 8 6
13 12 12 12 11 12 12 11 11 11 11 11 10 10 9 9 9 9 8 8 8 8 8 8 8 7 7 8 8 8 7 7 6 7 7 10 12 13 14 17 14 11 10 9 7
14 13 13 12 11 11 11 11 11 10 10 10 10 10 10 9 5 8 9 9 9 9 8 9 8 7 8 8 9 7 7 8 9 11 13 15 16 16 15 14 13 14 12 10 10
15 15 14 14 13 12 11 11 11 11 11 11 11 11 10 9 8 7 5 5 8 8 8 8 6 7 8 6 8 8 8 9 10 12 14 15 15 16 16 13 14 14 14 14 14
17 17 16 16 15 14 13 13 12 12 12 12 12 12 11 9 10 10 10 9 7 6 6 5 6 8 9 10 9 10 11 12 10 11 13 15 16 18 14 13 13 15 16 17 17
21 20 19 19 18 17 16 16 15 14 14 14 14 14 13 12 11 10 10 10 9 9 10 10 11 11 11 10 10 10 11 13 11 12 14 15 20 18 15 16 18 17 18 19 19
22 22 23 22 21 20 19 19 19 18 17 16 16 16 16 15 15 14 14 13 12 11 11 11 12 12 13 12 13 13 14 16 12 12 16 17 24 16 17 17 17 18 17 17 20
20 19 22 25 24 24 23 23 22 21 21 20 19 19 19 19 18 18 18 17 16 14 14 14 15 15 15 14 14 15 16 16 15 14 16 17 21 14 12 14 15 18 18 19 20
31 33 24 23 25 26 26 26 26 25 25 24 23 21 21 13 12 19 22 20 19 18 18 18 19 19 20 18 18 15 16 17 17 14 15 20 24 19 20 20 19 20 21 22 22
43 38 34 27 24 26 27 26 28 29 29 26 25 20 21 20 16 20 19 15 14 14 16 17 21 25 19 18 17 19 19 19 17 15 20 22 25 22 21 26 27 27 27 27 26
42 43 35 36 33 27 24 25 25 28 31 30 30 32 30 28 25 22 22 21 20 19 19 21 27 19 18 20 21 22 23 27 25 24 28 30 35 32 32 35 33 31 30 29 30
36 39 45 37 38 36 30 20 19 23 30 38 35 36 32 33 32 31 29 27 25 24 23 25 22 17 17 19 23 24 26 26 25 24 28 30 41 37 35 36 36 35 32 32 33
33 34 40 29 41 39 34 27 25 20 22 38 39 40 42 39 41 37 33 31 32 32 27 26 27 28 27 27 21 26 23 23 25 26 27 22 17 33 37 39 36 33 32 33 35
37 39 34 34 38 35 35 36 31 26 5 16 23 31 38 37 45 42 40 38 39 35 33 31 28 27 29 31 24 28 24 22 24 28 28 33 20 34 30 40 37 30 22 23 28
39 37 43 36 40 33 34 32 38 15 14 12 20 23 28 32 39 38 34 40 40 36 38 40 38 33 31 26 23 27 25 23 23 22 13 38 27 30 35 35 31 19 21 18 19
39 41 41 42 41 35 31 37 32 15 23 16 20 24 21 28 33 34 35 39 38 31 43 41 43 40 37 31 26 25 21 6 4 4 9 21 23 40 35 36 29 20 24 28 26
38 39 42 44 41 38 39 37 18 29 48 30 11 22 24 23 30 32 32 35 39 40 22 26 22 40 43 44 36 30 34 16 7 5 5 9 15 18 13 20 31 32 28 26 29
39 39 41 44 43 39 40 42 35 48 40 42 26 16 29 29 26 31 35 35 36 39 37 16 21 22 22 21 33 30 39 36 30 18 9 20 40 46 43 40 17 24 24 23 27
42 41 44 41 43 41 47 52 51 49 39 30 37 25 27 33 33 30 31 31 41 40 40 26 19 22 18 24 32 38 23 18 22 2 6 10 21 25 14 17 6 15 11 19 23
42 42 46 39 40 44 52 58 57 53 44 39 43 37 42 37 39 40 36 37 26 27 38 37 29 16 19 31 36 34 39 24 20 21 5 2 11 16 8 6 12 11 15 18 20
40 41 44 40 41 46 58 62 62 58 41 38 40 40 42 39 41 44 47 45 22 26 25 29 21 32 34 28 31 39 39 45 20 11 23 26 41 30 26 31 20 15 15 20 27
36 43 43 32 40 49 43 64 56 49 49 51 49 45 39 36 31 41 45 46 42 33 25 23 23 17 18 26 35 38 43 42 46 29 42 14 34 11 18 20 20 19 17 26 30
31 31 46 43 46 40 50 44 57 62 55 51 53 50 49 46 38 40 38 38 43 46 42 34 31 33 33 21 22 40 47 49 45 40 43 51 59 42 29 34 45 45 39 31 22
36 40 37 28 52 50 52 53 59 51 52 55 51 55 54 46 44 48 52 48 40 42 36 39 42 45 55 47 34 31 37 46 56 63 33 72 51 68 58 53 44 41 40 39 35
39 42 39 47 38 25 55 51 50 58 53 51 57 57 60 52 56 59 53 46 48 38 36 38 49 45 55 54 52 52 49 49 50 53 56 62 68 50 49 48 49 49 48 49 47
42 42 41 43 49 54 42 40 57 59 37 47 45 60 60 63 56 55 48 36 41 38 42 46 48 44 42 48 44 30 75 55 57 58 55 60 77 63 62 60 55 51 53 53 50

GFSSW_700_spd_045.txt.gz
Wind_Speed
15 15 15 15 15 14 14 13 13 12 12 12 12 12 13 13 12 12 11 11 10 10 9 9 8 8 7 8 8 10 10 11 10 12 9 7 8 10 10 10 9 9 6 5 4
16 15 14 14 14 14 13 12 12 12 12 13 13 13 13 12 12 11 11 10 10 10 9 10 9 8 8 8 9 10 11 10 9 9 9 7 7 8 11 12 13 12 9 8 7
16 16 15 14 13 13 13 13 13 13 13 13 13 13 12 11 11 10 10 10 11 10 9 9 9 9 8 8 9 9 9 10 10 8 9 9 11 11 13 14 13 12 12 11 10
17 16 16 15 14 13 13 13 13 14 14 13 13 12 11 10 8 11 11 11 11 10 10 10 8 9 8 9 9 8 9 10 10 11 11 11 13 16 16 14 13 17 15 12 11
16 16 16 15 14 14 14 13 13 13 13 13 12 12 11 10 10 7 8 8 9 11 10 9 9 9 8 8 9 9 9 10 11 12 13 15 16 17 16 14 15 16 16 15 14
17 16 15 15 15 14 14 14 14 14 13 13 13 12 11 11 12 12 11 9 7 7 8 8 8 8 7 8 9 9 10 11 11 13 13 15 16 18 13 13 15 15 15 16 17
19 19 17 16 16 15 15 15 14 14 14 14 14 13 13 13 12 13 12 11 10 9 9 9 9 9 9 8 10 12 11 12 13 14 15 15 21 18 13 15 16 16 17 18 18
22 21 21 19 19 18 17 17 16 16 16 15 15 15 15 15 15 14 13 12 11 11 11 11 11 11 11 11 12 12 13 15 13 12 15 17 25 14 14 16 17 18 18 19 19
23 23 22 21 21 21 20 20 18 19 18 18 18 17 18 17 17 17 16 15 14 14 13 14 14 13 12 13 13 13 14 15 14 14 17 18 23 13 12 15 16 17 18 18 19
24 22 20 20 19 21 23 23 22 22 21 21 21 19 20 12 16 21 21 19 18 17 18 18 17 16 17 16 16 14 15 16 16 16 17 21 26 21 21 21 19 21 20 21 21
39 35 33 28 26 21 23 23 24 25 26 24 22 17 20 19 15 19 13 17 24 23 22 21 21 24 16 14 16 17 20 22 21 17 21 25 29 23 22 26 25 24 23 24 25
37 39 40 37 38 30 26 21 20 24 28 29 28 30 28 25 21 18 19 19 19 19 19 20 24 15 15 18 20 20 23 26 24 24 28 31 36 33 31 32 31 30 30 29 28
34 36 36 39 43 38 32 27 23 21 27 35 33 34 30 30 30 28 27 25 22 21 21 24 19 14 15 19 21 22 25 24 24 25 28 31 43 39 34 35 32 33 32 33 32
36 34 33 39 38 38 36 32 28 27 22 35 35 37 38 36 39 35 32 29 30 30 26 26 29 28 27 29 23 29 24 23 23 24 23 20 15 36 38 37 35 32 34 30 27
35 35 35 31 36 29 27 36 28 28 5 13 21 28 33 37 45 40 39 36 36 34 31 31 25 25 28 29 24 29 24 22 21 23 26 34 20 30 25 36 39 31 23 23 24
35 36 35 38 36 31 33 33 34 23 10 13 18 21 26 31 39 38 32 38 41 37 38 40 37 34 30 27 20 23 20 19 22 20 11 35 26 37 35 36 31 24 22 18 20
33 36 37 39 43 36 24 31 27 14 22 21 21 20 20 26 32 35 36 39 40 32 44 43 45 42 40 33 26 24 20 4 4 3 10 13 18 45 28 34 35 17 12 15 25
36 35 36 41 40 36 32 32 15 15 32 24 13 23 22 21 25 30 33 34 40 41 25 28 25 42 45 45 32 28 34 17 7 4 5 10 14 18 13 18 29 40 26 19 21
38 37 38 37 39 38 36 35 32 36 32 41 25 19 23 25 25 28 33 35 38 41 38 15 21 24 23 20 31 29 34 33 29 24 12 21 40 46 42 31 26 14 12 10 16
41 41 42 36 36 35 41 44 46 54 39 29 31 24 29 29 29 28 26 29 38 37 36 25 19 19 19 22 25 35 19 17 18 2 5 11 21 27 24 21 14 9 3 10 13
42 42 45 38 36 38 46 46 53 54 49 43 40 31 34 33 35 37 32 33 24 29 36 35 26 17 19 28 33 32 39 22 14 19 5 3 18 24 18 11 12 6 19 11 15
40 44 42 39 40 45 50 51 54 49 42 41 42 39 45 40 35 39 44 46 26 28 33 31 22 34 38 29 25 34 39 43 20 10 20 26 45 18 14 17 21 20 13 11 17
40 44 45 31 38 48 52 53 56 42 53 42 49 45 46 39 39 42 48 47 45 40 30 33 27 16 11 23 30 33 38 41 42 31 43 11 44 18 15 27 29 24 18 22 30
28 36 42 43 41 35 51 55 56 59 43 55 47 50 40 38 40 34 40 40 44 46 39 32 31 35 33 13 13 32 47 45 44 35 54 44 69 50 31 23 23 25 30 41 46
32 38 39 23 49 56 38 37 51 59 54 45 54 52 47 48 38 44 47 37 35 36 40 38 37 39 49 45 41 38 28 29 45 58 37 70 48 67 57 51 44 45 46 48 42
36 36 38 43 34 25 53 55 47 37 51 44 50 51 58 48 53 60 54 50 49 39 39 37 42 42 58 59 53 51 52 55 50 50 52 60 64 54 52 49 48 52 50 51 52
43 37 37 42 44 41 38 34 60 57 47 45 56 43 60 60 62 59 52 44 43 44 45 46 43 42 36 52 41 28 60 64 55 60 57 57 67 55 57 57 56 53 57 57 54

GFSSW_700_spd_048.txt.gz
Wind_Speed
16 17 17 16 15 14 14 13 13 13 12 11 11 11 10 11 11 11 11 12 12 12 11 11 10 11 12 12 14 14 12 12 8 9 8 5 4 7 8 8 7 8 6 4 4
16 16 16 16 15 14 14 14 14 14 13 13 12 12 11 11 12 12 12 12 12 11 11 11 11 11 11 11 11 12 13 10 10 8 9 7 6 7 8 8 10 10 9 7 6
17 17 16 16 16 16 16 15 14 14 13 13 13 12 12 12 12 13 13 12 12 12 11 10 11 10 10 10 11 11 11 10 9 9 11 11 10 10 11 12 8 9 11 11 10
17 17 16 16 16 16 16 16 15 14 13 13 13 13 13 13 10 14 13 13 12 12 11 11 11 10 10 10 10 9 10 9 9 9 10 11 13 14 15 12 12 13 15 14 11
18 17 16 16 16 16 15 15 15 14 14 14 13 13 14 14 13 9 13 12 12 12 12 11 12 11 10 9 9 9 9 9 10 11 13 14 15 17 16 15 15 15 15 14 15
19 18 17 16 16 16 15 15 14 14 14 14 14 15 15 14 14 12 11 9 9 11 12 12 13 11 10 10 9 8 10 10 11 13 14 15 17 17 12 13 16 15 15 15 16
20 20 18 16 16 15 15 14 14 14 14 14 14 15 15 15 14 14 14 12 11 10 10 12 12 11 9 9 11 11 11 12 13 13 15 16 21 16 10 14 16 14 15 16 16
22 21 20 19 17 16 16 15 15 15 15 15 14 15 15 15 16 13 14 13 13 13 13 12 12 12 11 11 11 10 11 13 11 11 14 16 23 14 14 15 15 17 18 19 19
22 22 22 21 19 19 18 18 17 17 17 16 16 15 16 16 16 16 16 15 14 14 13 13 13 14 13 12 12 11 12 13 12 13 14 17 22 14 12 14 17 19 20 21 22
21 19 23 22 22 21 20 20 20 21 20 19 19 17 18 11 17 19 18 18 17 17 16 16 17 16 16 15 11 8 12 16 14 13 16 21 26 20 19 20 21 23 23 22 22
30 26 22 19 20 18 18 18 21 23 24 22 19 14 18 15 14 15 14 22 22 20 20 20 20 21 15 13 16 17 18 20 19 19 23 25 29 25 20 26 26 25 25 25 25
35 34 34 30 30 27 24 20 19 22 24 27 26 27 25 22 19 18 18 17 17 20 23 23 26 16 17 18 19 20 20 21 21 21 25 27 35 31 28 27 28 29 29 27 27
37 37 40 38 37 33 31 27 26 24 26 31 29 30 28 28 28 26 23 20 20 20 19 21 16 14 15 19 21 21 22 21 21 23 28 32 42 36 30 31 29 27 29 31 30
34 34 34 23 35 38 35 35 29 29 22 34 33 34 35 32 36 33 30 29 27 24 22 21 25 26 26 26 20 28 23 22 21 20 21 18 14 41 36 35 33 29 25 25 28
32 35 34 33 32 31 30 29 30 26 5 14 23 29 34 35 42 38 37 34 34 31 29 27 24 23 27 28 24 28 24 21 20 20 28 27 16 32 34 40 38 31 24 19 17
29 32 35 35 37 34 28 27 35 23 12 14 18 21 27 31 40 39 33 37 38 34 35 38 36 32 28 25 19 22 17 14 17 18 13 25 22 46 38 38 29 32 23 24 22
31 30 33 36 39 35 30 30 27 9 21 17 17 25 21 26 31 35 35 36 36 31 43 42 44 41 39 34 28 24 16 4 4 2 9 5 15 44 34 30 22 24 22 10 12
34 33 32 33 36 34 33 37 16 10 28 14 16 22 21 18 22 26 31 32 36 39 25 25 25 40 44 44 31 27 32 16 7 4 6 9 16 26 33 28 35 28 13 17 19
36 36 35 32 31 34 35 37 35 32 28 30 19 15 21 24 24 25 28 30 33 37 38 11 20 25 23 18 28 29 34 31 26 23 10 18 39 45 37 21 13 13 25 12 9
39 37 39 32 33 30 32 44 43 43 32 28 28 20 23 26 25 25 22 22 34 34 32 23 22 21 17 22 24 35 19 13 16 3 5 13 20 27 23 19 8 11 14 8 7
38 41 39 36 34 34 43 38 47 51 41 40 32 20 24 27 28 31 22 28 24 21 26 34 28 18 17 28 31 30 33 19 13 12 5 3 20 22 18 13 6 9 13 7 9
34 38 37 36 37 43 48 52 48 42 39 42 41 42 41 36 35 35 41 40 17 30 28 24 19 32 39 29 24 32 39 42 20 8 16 19 41 19 17 15 14 14 17 21 16
30 33 33 26 34 46 52 52 51 46 40 34 36 44 44 41 37 41 42 41 38 35 30 28 23 25 20 26 29 33 39 38 38 32 35 12 42 8 10 19 18 22 24 23 22
28 25 29 37 38 36 42 53 53 53 50 35 38 40 39 42 39 41 38 43 44 43 41 39 31 32 32 18 14 33 46 42 41 29 54 38 67 56 39 31 28 23 26 31 29
32 33 31 18 41 47 34 37 38 51 47 41 54 55 45 37 45 44 48 46 40 42 41 41 38 40 51 47 33 29 19 22 43 52 36 59 48 69 55 51 49 44 41 38 42
37 37 33 31 28 24 49 52 43 30 37 44 45 47 49 55 45 42 38 47 42 33 36 38 42 39 52 52 50 47 42 42 47 46 42 58 60 62 52 52 52 52 47 44 41
37 41 39 36 30 29 41 36 55 51 53 47 36 43 41 46 47 52 45 45 40 43 38 41 43 39 38 50 46 34 62 65 63 65 63 56 64 57 59 58 54 49 50 52 49